TimeEST,TemperatureF,Dew PointF,Humidity,Sea Level PressureIn,VisibilityMPH,Wind Direction,Wind SpeedMPH,Gust SpeedMPH,PrecipitationIn,Events,Conditions,WindDirDegrees,DateUTC
12:53 AM,21.9,14.0,72,30.42,10.0,ESE,3.5,-,N/A,,Overcast,120,2013-02-22 05:53:00
1:53 AM,21.9,15.1,75,30.42,10.0,ESE,6.9,-,0.00,,Overcast,110,2013-02-22 06:53:00
2:53 AM,21.0,15.1,78,30.42,10.0,SE,9.2,-,0.00,,Overcast,130,2013-02-22 07:53:00
3:53 AM,21.0,15.1,78,30.38,10.0,ESE,8.1,-,N/A,,Overcast,110,2013-02-22 08:53:00
4:33 AM,21.2,15.8,80,30.31,10.0,East,6.9,-,N/A,,Scattered Clouds,100,2013-02-22 09:33:00
4:53 AM,21.0,15.1,78,30.37,10.0,East,8.1,-,N/A,,Clear,80,2013-02-22 09:53:00
5:53 AM,21.0,15.1,78,30.38,10.0,ESE,8.1,-,N/A,,Clear,110,2013-02-22 10:53:00
6:53 AM,21.9,16.0,78,30.34,10.0,East,15.0,-,N/A,,Clear,100,2013-02-22 11:53:00
7:01 AM,21.2,15.8,80,30.27,10.0,East,13.8,-,N/A,,Overcast,90,2013-02-22 12:01:00
7:53 AM,23.0,17.1,78,30.32,10.0,East,12.7,-,N/A,,Overcast,100,2013-02-22 12:53:00
8:53 AM,24.1,17.1,75,30.30,10.0,East,11.5,19.6,N/A,,Overcast,100,2013-02-22 13:53:00
9:53 AM,25.0,18.0,75,30.25,10.0,East,13.8,-,N/A,,Mostly Cloudy,100,2013-02-22 14:53:00
10:53 AM,28.0,19.0,69,30.20,10.0,East,16.1,-,N/A,,Overcast,100,2013-02-22 15:53:00
11:53 AM,30.0,19.0,64,30.17,10.0,East,15.0,24.2,N/A,,Overcast,100,2013-02-22 16:53:00
12:53 PM,30.9,19.9,64,30.13,10.0,East,12.7,-,N/A,,Overcast,90,2013-02-22 17:53:00
1:29 PM,30.2,21.2,69,30.08,6.0,East,8.1,-,0.00,,Small Hail,90,2013-02-22 18:29:00
1:35 PM,30.2,21.2,69,30.07,7.0,East,9.2,-,0.00,,Overcast,90,2013-02-22 18:35:00
1:36 PM,30.2,21.2,69,30.07,7.0,East,10.4,-,0.00,Snow,Light Snow,100,2013-02-22 18:36:00
1:43 PM,32.0,21.2,64,30.08,2.5,East,9.2,-,0.00,Snow,Light Snow,100,2013-02-22 18:43:00
1:47 PM,30.2,21.2,69,30.08,2.0,ESE,10.4,-,0.00,Snow,Light Snow,110,2013-02-22 18:47:00
1:53 PM,30.9,21.9,69,30.14,2.0,ESE,9.2,-,0.00,Snow,Light Snow,120,2013-02-22 18:53:00
1:59 PM,30.2,23.0,75,30.07,1.8,ESE,12.7,-,0.00,Snow,Light Snow,120,2013-02-22 18:59:00
2:08 PM,30.2,24.8,80,30.07,1.5,ESE,10.4,-,0.00,Snow,Light Snow,110,2013-02-22 19:08:00
2:24 PM,30.2,26.6,86,30.06,1.2,East,9.2,-,0.00,Snow,Light Snow,100,2013-02-22 19:24:00
2:30 PM,30.2,26.6,86,30.05,1.8,East,10.4,-,0.00,Snow,Light Snow,100,2013-02-22 19:30:00
2:36 PM,30.2,26.6,86,30.04,2.0,East,12.7,-,0.00,Snow,Light Snow,100,2013-02-22 19:36:00
2:47 PM,30.2,26.6,86,30.04,2.5,East,15.0,-,0.00,Snow,Light Snow,100,2013-02-22 19:47:00
2:53 PM,30.0,26.1,85,30.09,2.5,East,13.8,-,0.00,Snow,Light Snow,100,2013-02-22 19:53:00
2:56 PM,30.2,26.6,86,30.04,2.5,East,13.8,-,0.00,Snow,Light Snow,100,2013-02-22 19:56:00
3:13 PM,30.2,26.6,86,30.02,3.0,East,11.5,-,0.00,Snow,Light Snow,90,2013-02-22 20:13:00
3:53 PM,30.9,27.0,85,30.06,10.0,East,10.4,-,0.00,Snow,Light Snow,100,2013-02-22 20:53:00
4:05 PM,30.2,26.6,86,30.00,10.0,East,9.2,-,0.00,,Overcast,100,2013-02-22 21:05:00
4:36 PM,30.2,26.6,86,30.00,10.0,East,8.1,-,0.00,,Overcast,90,2013-02-22 21:36:00
4:53 PM,30.9,27.0,85,30.05,10.0,East,6.9,-,0.00,,Overcast,90,2013-02-22 21:53:00
5:53 PM,32.0,27.0,82,30.04,10.0,East,8.1,-,N/A,,Overcast,100,2013-02-22 22:53:00
6:45 PM,33.8,26.6,75,29.99,10.0,ESE,5.8,-,N/A,,Overcast,120,2013-02-22 23:45:00
6:53 PM,33.1,27.0,78,30.04,10.0,ESE,5.8,-,N/A,,Overcast,120,2013-02-22 23:53:00
7:34 PM,33.8,28.4,81,29.99,6.0,SSE,5.8,-,0.00,Snow,Light Snow,160,2013-02-23 00:34:00
7:53 PM,34.0,28.9,82,30.03,10.0,SSE,5.8,-,0.01,Snow,Light Snow,150,2013-02-23 00:53:00
8:14 PM,33.8,28.4,81,29.98,10.0,SE,4.6,-,0.00,,Overcast,140,2013-02-23 01:14:00
8:53 PM,34.0,28.9,82,30.03,10.0,SSE,3.5,-,0.00,,Overcast,150,2013-02-23 01:53:00
8:59 PM,33.8,28.4,81,29.98,10.0,SSE,4.6,-,0.00,Snow,Light Snow,150,2013-02-23 01:59:00
9:31 PM,33.8,28.4,81,29.98,10.0,SSE,3.5,-,0.00,,Overcast,150,2013-02-23 02:31:00
9:53 PM,35.1,28.9,78,30.02,10.0,South,4.6,-,0.00,,Overcast,170,2013-02-23 02:53:00
10:53 PM,35.1,28.9,78,30.01,10.0,South,10.4,-,N/A,,Overcast,180,2013-02-23 03:53:00
11:53 PM,35.1,28.9,78,29.99,10.0,South,11.5,-,N/A,,Overcast,180,2013-02-23 04:53:00